ARIANE 5 DEB, 43384

Orbit data source: Space-Track

ARIANE 5 DEB, 43384 is space debris in HEO originally from a launch on Thu, 12 Jun 2008 UTC launched from the French Guiana (FRGUI). Debris objects in space refer to the collection of defunct objects orbiting the Earth. Examples of debris include non-operational satellites, rocket bodies, and fragments generated from explosions, collisions, or faulty payload assembly.

Loading next visibility...
ARIANE 5 DEB details
Identifier
43384, 2008-030G
Orbit
HEO
Last TLE update2 days ago
Origin
Flag of FRESA (FR)
ManufacturerThales Alenia
MissionSpacecraft
Bus & MotorUnknown
MassUnknown
Launch date (UTC)
2008-06-12 (17 years ago)
Launch vehicleUnknown
Launch site
French Guiana (FRGUI)
Object type
Payload
Rocket body
Debris
Shape & HBRUnknown
Radar Cross SectionMedium (>0.1 m² and <1 m²)

Expand to show TLE details & history

TLE from 2 days ago
0 ARIANE 5 DEB
1 43384U 08030G   24359.88303600  .00000365  00000-0  11872-2 0  9999
2 43384   1.5642 128.5693 7199221   4.0353 359.3673  2.30413430133757
Epoch: 2024-12-24T21:11Z
Definitive object data (Epoch: 2024-12-24T21:11:34.31Z)
Latitude-0.00016°
Longitude76.53612°
Altitude410.106 km
Speed10.048 km/s
True Right ascension08h 33m 15s
True Declination0° 00' 01"
Sunlit
Object was in full shadow at TLE epoch
Visualization TLE readout
Latitude-1.4283°
Longitude8.25429°
Altitude3,275.088 km
Speed8.131 km/s
Apparent Right ascension03h 18m 38s
Apparent Declination-17° 01' 46"
Sunlit
Object is in partial shadow
Visualization observer readout
Local Sidereal Time13:55:33
Azimuth315.829° NNW
Elevation-60.881°
Doppler factor1
Orbital elements
Apogee altitude35,277.121 km
Perigee altitude405.145 km
Semi-major axis24,219.27 km
Eccentricity0.7199221
Inclination1.5642°
RAAN128.5693°
Arg. of periapsis4.0353°
True anomaly354.40942°
Mean anomaly359.3673°
Eccentric anomaly357.74249°
Mean motion0.57584 °/min
BSTAR0.0011872
Orbital period625.17 mins
Loading maneuver chart data...
Loading historical data...
Loading historical data...
Loading historical data...
Loading historical data...
Loading historical data...
Loading historical data...
Loading historical data...

ARIANE 5 DEB Visibility forecast

Observer location: undefined°, undefined

Span
Click to sort rows by Start time (UTC) header in descending order
Start Az.
Max El. time (UTC)
Max El. Az.
Max El.
End time (UTC)
End Az.
573 mins2024-12-26 15:11:41.941Z195.433° SSW2024-12-26 21:55:41.941Z165.367° S33.435°2024-12-27 00:44:41.941Z136.43° SSE
|